Regional Weather Roundup
Issued by NWS Little Rock, AR

Home | Current Version | Previous Version | Graphics & Text | Print | Product List | Glossary On
Versions: 1 2 3 4 5 6 7 8 9 10 11 12 13 14 15 16 17 18 19 20 21 22 23 24 25 26 27
000
ASUS44 KLZK 291705
RWRLZK

WEATHER ROUNDUP FOR ARKANSAS
NATIONAL WEATHER SERVICE LITTLE ROCK AR
1200 PM CDT FRI APR 29 2016

NOTE: "FAIR" INDICATES FEW OR NO CLOUDS BELOW 12,000 FEET WITH NO
SIGNIFICANT WEATHER AND/OR OBSTRUCTIONS TO VISIBILITY.

ARZ001-003-010-029-291800-
NORTHWEST ARKANSAS

CITY           SKY/WX    TMP DP  RH WIND       PRES   REMARKS
FAYETTEVILLE   CLOUDY    60  57  89 NE9       29.86R
FORT SMITH     CLOUDY    64  55  72 E21G28    29.83F
HARRISON       CLOUDY    54  52  93 SE15G25   29.91S
BENTONVILLE    CLOUDY    59  52  77 E13G21    29.87F
ROGERS         CLOUDY    58  55  90 E13G20    29.87F
SILOAM SPGS    CLOUDY    61  50  67 E9G16     29.86F
HIGHFILL       CLOUDY    61  56  83 E16       29.86F
SPRINGDALE     PTSUNNY   59  55  88 E17G23    29.88F
$$

ARZ004-005-016-291800-
NORTH CENTRAL ARKANSAS

CITY           SKY/WX    TMP DP  RH WIND       PRES   REMARKS
BATESVILLE     CLOUDY    55  54  94 E7        30.00F
FLIPPIN        CLOUDY   N/A N/A N/A E15G23    29.90F
MTN HOME       LGT RAIN  54  52  93 E17G25    29.92F
$$

ARZ040-041-291800-
WEST CENTRAL ARKANSAS

CITY           SKY/WX    TMP DP  RH WIND       PRES   REMARKS
MENA           CLOUDY    61  61 100 E6        29.86F
MOUNT IDA      CLOUDY    60  58  92 VRB3      29.83F
$$

ARZ009-017-025-026-028-291800-
NORTHEAST ARKANSAS

CITY           SKY/WX    TMP DP  RH WIND       PRES   REMARKS
CORNING        RAIN      57  55  94 NE5       30.08R
JONESBORO      HVY RAIN  58  57  97 N9        30.04R FOG
NEWPORT        RAIN      57  57 100 NE20      29.99F
WALNUT RIDGE   CLOUDY    55  52  88 NE9       30.04S THUNDER
BLYTHEVILLE    TSTM      61  57  87 E7        30.01F
NW BLYTHEVILLE TSTM      61  57  88 CALM      30.03R
$$

ARZ022-023-033-042-044-291800-
CENTRAL ARKANSAS

CITY           SKY/WX    TMP DP  RH WIND       PRES   REMARKS
LITTLE ROCK    TSTM      63  62  97 NW5       29.96R VSB 1
N LITTLE ROCK    N/A     60  59  96 W6        29.90R
JACKSONVILLE   TSTM      61  61 100 E5        29.95R FOG
SEARCY         TSTM      59  57  93 NW13G29   30.01R FOG
HOT SPRINGS    TSTM      65  63  93 SE8       29.87F FOG
RUSSELLVILLE   CLOUDY    58  56  93 VRB6      29.89R
$$

ARZ036-291800-
EAST ARKANSAS

CITY           SKY/WX    TMP DP  RH WIND       PRES   REMARKS
WEST MEMPHIS   TSTM      59  59 100 N10G28    29.99R FOG
$$

ARZ050-053-066-070-073-291800-
SOUTHWEST ARKANSAS

CITY           SKY/WX    TMP DP  RH WIND       PRES   REMARKS
ARKADELPHIA    LGT RAIN  68  68 100 N6        29.90S
CAMDEN         CLOUDY    73  68  83 NE7       29.89R FOG
TEXARKANA      CLOUDY    78  69  73 SE7       29.82R
EL DORADO      CLOUDY    76  70  82 S6        29.85R
DE QUEEN       CLOUDY    68  67  96 E6        29.79R THUNDER
$$

ARZ056-057-069-291800-
SOUTHEAST ARKANSAS

CITY           SKY/WX    TMP DP  RH WIND       PRES   REMARKS
PINE BLUFF     TSTM      65  64  97 NE7       29.89R FOG
STUTTGART      CLOUDY    64  57  77 NE9       29.94R THUNDER
MONTICELLO     CLOUDY    73  71  93 NE3       29.88S

$$






USA.gov is the U.S. government's official web portal to all federal, state and local government web resources and services.